Theta_e
331 336 337 340 340 338 336 332 330 329 329 329 330 328 328 328 329 330 331 336 336 334 334 334 334 333 333 333 332 332 332 331 331 331 331 330 330 330 329 330 330 330 330
334 336 335 338 337 335 333 329 328 327 329 328 326 327 327 328 328 329 330 332 335 335 333 333 333 333 332 332 331 331 330 330 330 329 329 329 329 329 328 328 328 328 328
337 336 335 338 337 334 329 327 326 327 327 326 325 326 327 327 327 327 329 330 330 333 333 331 331 331 331 330 330 329 329 329 328 328 328 327 328 327 327 327 327 327 327
339 335 333 335 336 330 329 326 326 326 325 325 324 325 325 326 326 326 327 327 328 327 331 332 330 329 329 329 328 328 327 327 327 327 327 326 326 326 326 326 326 326 326
339 335 332 335 333 328 327 325 325 325 324 324 323 324 324 324 324 324 325 326 327 328 327 331 332 330 328 328 327 327 326 326 325 325 325 325 325 324 324 324 324 324 324
338 334 333 333 329 326 328 326 323 324 324 323 320 320 322 322 322 322 322 323 325 327 325 325 326 324 327 326 326 326 325 324 324 324 323 323 323 323 323 323 322 322 321
335 330 330 329 326 325 327 326 324 322 322 322 320 319 319 319 319 320 320 320 321 321 322 324 324 322 319 322 322 323 323 323 322 321 322 321 321 321 321 321 320 320 319
330 327 326 327 326 327 325 325 325 322 321 321 317 316 310 313 316 317 318 317 317 319 319 319 319 320 322 319 319 318 320 319 319 319 319 319 319 319 319 319 319 318 318
325 325 327 326 326 326 325 326 326 324 319 320 318 316 310 308 312 315 315 316 316 315 316 317 316 317 318 317 316 316 317 315 315 315 316 316 316 317 318 318 318 317 316
323 323 324 322 325 326 326 325 326 325 323 318 319 317 317 315 310 308 314 314 315 314 314 315 314 316 316 319 316 316 313 311 311 311 312 313 313 315 316 316 316 315 314
318 319 321 321 323 325 325 326 326 324 324 321 320 317 315 315 314 313 308 311 314 315 315 314 314 316 315 316 318 317 313 312 309 308 309 310 312 312 314 314 314 313 312
315 315 315 318 321 322 323 326 327 326 324 323 321 320 317 313 311 313 310 310 310 311 311 309 307 307 309 311 313 311 311 311 314 311 308 309 310 311 312 312 312 312 312
314 314 314 314 315 316 322 325 326 327 326 324 322 320 319 317 316 314 312 310 307 307 307 306 307 308 307 309 310 308 309 310 312 315 310 310 310 309 309 310 310 311 311
316 315 314 313 312 313 315 318 322 325 326 325 325 323 320 317 318 317 315 311 307 308 306 305 303 303 304 304 307 310 308 310 309 309 307 307 307 307 308 309 310 310 310
313 314 313 311 311 312 312 313 316 321 321 322 321 320 317 314 315 314 313 310 308 302 304 300 299 300 302 303 303 304 304 304 305 306 306 306 307 307 308 309 309 308 308
312 311 310 310 310 310 310 310 311 313 315 315 316 314 312 311 310 309 308 307 306 306 302 298 297 298 299 300 303 304 304 303 303 303 304 304 305 306 306 306 306 306 306
311 310 310 309 309 309 309 308 308 307 307 307 308 308 305 306 303 303 303 303 302 303 301 294 296 297 298 300 301 303 302 302 303 301 301 302 303 303 303 303 303 304 304
311 310 310 309 309 309 309 308 308 308 307 306 307 306 303 303 300 300 300 298 297 297 298 293 295 297 298 300 300 301 300 300 300 300 300 301 301 301 302 302 302 303 302
311 311 310 309 309 309 309 309 309 309 308 307 306 305 302 300 298 298 297 297 297 299 299 296 295 298 300 300 299 299 298 298 298 300 301 300 300 301 301 302 301 301 301
308 307 306 303 303 304 306 306 305 304 304 303 302 301 299 298 297 296 296 297 298 297 298 297 296 297 298 299 297 295 295 298 298 300 300 301 301 302 301 301 301 300 299
304 304 302 301 300 299 299 298 298 297 297 296 297 298 299 300 301 300 298 299 299 298 298 297 296 295 295 295 294 296 295 296 297 299 298 298 298 299 299 299 299 299 299
302 303 302 302 302 302 303 302 300 298 298 299 298 300 301 303 303 303 303 302 301 299 297 296 295 294 294 295 296 294 294 294 292 300 295 294 298 296 298 298 298 298 298
304 303 302 302 300 301 303 303 303 301 300 300 301 301 300 301 303 301 302 301 299 298 298 296 295 295 294 294 294 292 293 294 293 295 295 292 296 294 296 296 298 297 298
302 301 301 301 300 299 301 301 301 300 299 299 300 300 300 299 299 299 300 298 296 297 298 297 296 295 294 295 294 293 293 294 295 296 295 290 294 292 294 295 297 296 296
301 300 299 299 298 297 298 298 297 296 296 296 297 297 297 296 296 296 296 296 295 296 298 297 296 295 294 294 294 293 292 291 291 292 293 290 291 290 291 293 296 296 296
299 299 298 298 298 295 296 295 295 295 294 294 295 295 295 297 296 297 297 296 294 294 294 293 293 293 294 294 293 293 292 290 289 289 292 288 288 288 285 292 291 293 293
Wind_Speed
12 4 3 4 7 9 6 6 5 6 7 7 8 9 10 13 14 8 6 15 15 18 19 19 20 21 22 22 23 23 24 25 25 26 26 26 27 27 27 27 27 27 27
12 7 4 3 1 5 5 5 6 6 6 7 9 9 10 11 13 12 8 8 14 16 18 18 19 20 20 21 21 22 22 23 23 24 24 25 25 26 26 26 26 26 26
14 11 6 7 3 7 9 6 6 6 5 7 8 9 7 12 11 13 10 8 9 13 15 17 18 18 19 19 20 20 20 21 21 22 23 23 24 24 24 25 25 24 24
16 11 8 9 8 6 8 8 8 8 8 8 8 7 8 8 10 12 10 8 8 8 9 13 15 16 17 17 17 18 18 19 19 20 21 21 22 22 23 23 23 24 24
15 10 9 8 9 5 8 8 7 8 8 8 8 7 7 7 9 8 9 8 8 8 7 10 12 12 14 15 16 16 16 17 18 18 19 19 20 20 20 20 21 21 21
15 11 7 11 7 7 7 7 9 9 8 8 9 8 7 5 6 7 9 8 6 7 8 8 7 7 11 12 13 13 14 15 15 15 16 17 17 18 18 19 19 19 19
15 11 8 10 5 7 9 10 9 10 7 8 7 7 6 6 6 5 5 7 7 6 6 3 4 7 6 11 10 10 11 12 12 13 13 14 14 15 16 16 17 17 17
12 12 11 10 10 7 8 10 9 8 6 8 8 7 5 4 6 6 5 5 8 4 5 4 4 4 3 6 6 8 8 9 9 9 10 11 12 13 13 15 15 16 16
8 10 11 9 12 8 7 9 9 10 8 7 11 4 6 4 7 6 6 5 5 4 3 3 2 2 2 6 7 7 6 5 5 6 7 9 9 10 12 13 15 16 17
6 7 9 7 9 8 8 8 8 8 8 8 7 1 1 1 6 6 5 6 4 5 6 3 2 1 1 1 7 8 6 4 3 4 5 5 7 8 10 12 14 15 17
6 6 8 9 9 7 9 11 11 11 8 6 4 5 4 0 5 4 7 6 6 3 2 1 1 1 7 5 3 7 5 1 1 1 3 5 6 6 8 11 12 14 15
5 4 7 4 7 6 5 8 10 11 9 8 6 5 4 3 4 2 2 9 8 4 2 3 4 2 1 3 4 2 3 2 5 4 2 3 5 6 8 10 13 14 13
6 5 6 3 4 3 2 3 7 8 9 7 8 5 4 4 2 1 2 5 3 3 3 2 3 1 2 1 2 1 2 1 4 5 2 4 5 4 8 10 12 13 15
6 9 7 4 4 4 2 2 3 3 5 6 4 3 2 3 1 2 1 4 3 3 2 5 2 2 3 2 2 5 6 7 7 7 6 5 6 8 10 11 12 14 15
6 8 8 7 5 5 5 1 1 2 4 5 4 3 4 5 5 5 5 5 3 2 2 3 1 1 1 3 4 5 6 4 5 7 7 8 9 11 11 12 14 14 15
9 9 10 9 7 6 5 4 5 5 3 5 4 7 7 5 5 5 4 5 3 2 3 1 1 1 2 2 1 1 4 3 3 4 7 9 10 11 12 12 13 13 14
8 8 8 9 8 6 6 7 7 8 8 7 6 8 7 5 4 4 4 3 1 1 2 1 1 2 3 2 2 2 2 1 1 0 4 8 11 11 11 12 12 12 12
9 10 10 10 7 6 6 9 9 8 7 6 5 6 5 4 5 4 3 4 3 1 3 3 2 2 2 1 2 4 3 4 3 7 6 9 10 8 8 9 11 11 12
9 10 9 11 10 7 6 6 6 6 5 4 4 5 5 5 5 4 4 3 3 2 3 3 2 2 1 0 2 3 4 3 3 5 7 5 3 6 9 11 11 11 10
9 9 9 8 8 7 6 5 5 5 6 5 5 6 7 6 6 6 4 4 3 3 3 3 2 2 1 2 3 3 3 2 3 5 3 6 7 11 10 9 10 8 7
9 9 10 9 10 7 5 7 7 7 7 7 6 5 5 7 9 7 4 4 4 2 2 2 2 1 2 2 1 1 4 4 6 1 2 4 3 3 4 6 7 10 12
10 10 10 10 10 7 13 12 9 7 7 6 6 7 7 9 8 8 7 5 4 1 1 1 1 2 3 2 3 4 4 5 4 3 5 6 2 3 2 3 4 8 10
11 9 10 10 11 10 13 13 12 6 5 6 6 5 5 4 7 6 7 7 6 6 6 5 3 3 4 4 2 5 6 6 6 5 3 5 2 4 3 6 10 5 7
10 9 9 10 9 7 11 11 10 6 6 6 5 4 4 4 3 2 5 4 2 4 3 2 5 4 3 4 4 5 7 8 7 4 3 4 4 5 5 5 1 2 9
9 9 8 9 9 8 9 8 6 6 6 5 4 3 1 3 5 1 4 4 4 5 8 6 6 3 3 4 5 4 6 3 5 2 5 4 4 6 5 4 3 15 13
8 7 7 7 10 8 7 5 2 4 5 4 3 4 3 4 2 3 6 3 2 4 3 4 3 3 5 5 3 6 4 4 3 4 4 5 5 6 5 3 8 7 8
Wind_Direction
314 311 273 156 189 145 177 141 141 154 160 151 129 124 119 116 106 100 87 87 90 90 89 86 83 80 78 75 73 71 69 68 66 65 63 61 60 59 57 54 52 51 48
214 232 232 162 214 104 99 143 146 146 122 121 113 114 100 100 107 114 109 88 86 90 89 87 86 83 80 77 75 73 72 71 69 68 65 63 60 57 56 55 54 51 47
181 198 187 178 171 135 140 144 124 130 112 119 120 119 118 123 119 121 121 112 95 78 89 91 88 85 82 80 78 77 75 73 71 69 68 64 61 58 54 51 50 47 45
183 188 190 162 168 159 163 155 154 145 143 137 138 119 116 120 119 119 129 128 121 108 82 87 90 89 86 84 84 81 78 74 72 70 69 67 65 59 55 51 47 42 40
177 182 184 159 168 128 155 149 153 147 149 135 122 131 129 124 126 126 115 114 123 116 108 81 79 85 89 86 82 79 78 76 74 73 68 65 66 63 60 55 50 45 40
175 184 151 154 147 144 162 159 152 152 148 142 140 137 128 132 137 138 134 132 101 122 135 138 134 77 76 82 86 85 82 79 76 74 70 67 62 59 54 50 44 38 33
165 149 147 152 130 151 166 158 158 150 144 151 131 125 135 147 143 133 136 129 141 138 139 116 128 136 111 86 64 73 81 80 77 73 71 66 63 56 54 47 39 34 27
143 154 148 156 156 159 174 160 158 142 150 148 151 139 143 151 160 158 174 157 157 160 143 147 133 74 106 89 89 71 56 74 78 72 62 55 52 49 38 37 30 25 21
133 137 166 150 162 156 170 148 159 161 155 176 166 171 148 186 165 176 178 181 162 155 160 120 111 165 126 112 157 120 101 77 72 64 54 47 37 32 28 22 21 17 8
108 146 155 153 161 160 166 159 162 164 165 186 181 257 344 233 172 159 190 193 162 168 171 162 219 60 64 295 92 104 124 122 79 58 44 34 21 14 17 14 6 5 1
93 71 155 169 168 165 169 179 176 177 177 174 206 163 223 83 229 146 171 187 176 159 143 118 105 311 28 12 345 125 133 85 326 20 15 2 358 357 3 357 357 355 352
109 84 77 117 173 168 166 176 182 193 182 193 192 176 196 192 208 235 290 164 186 131 98 52 51 55 35 0 346 92 116 234 258 221 242 313 328 335 345 342 344 343 342
126 134 81 68 60 61 97 155 192 198 203 212 176 195 196 226 343 317 348 105 163 139 146 84 70 44 52 67 79 106 80 347 274 249 254 313 328 340 326 327 332 333 331
128 143 148 108 83 94 113 159 198 235 223 223 208 192 165 219 360 43 333 129 149 136 150 102 60 58 48 108 145 103 92 60 51 44 25 353 329 319 320 323 326 324 326
113 120 124 114 89 72 71 114 354 173 226 217 199 146 89 59 59 55 66 77 62 327 252 115 163 70 94 60 17 67 64 59 48 22 5 345 331 323 319 317 318 320 326
112 114 111 106 101 90 89 93 83 49 84 49 51 89 89 83 73 63 55 55 55 252 255 80 54 104 77 145 84 142 102 272 129 48 352 333 325 318 314 315 316 320 318
97 101 107 112 113 118 115 94 89 96 95 96 83 106 92 83 69 51 52 67 170 216 199 115 102 256 213 239 113 270 205 322 297 269 304 314 310 308 309 309 312 314 325
96 100 107 103 101 110 117 120 123 122 138 133 125 107 104 98 102 126 126 141 144 174 151 137 170 187 196 280 265 296 347 315 342 301 318 302 310 311 315 328 324 321 320
106 115 115 121 119 111 92 84 89 99 90 96 110 117 129 128 130 133 124 121 110 89 89 127 138 179 167 46 338 304 283 271 278 279 276 302 316 297 303 309 308 312 318
95 94 89 79 83 82 95 96 96 97 108 93 90 110 130 132 140 143 134 129 119 87 68 90 99 146 214 149 249 277 315 310 301 284 323 263 272 271 282 303 301 303 335
99 104 101 96 91 86 92 101 104 106 100 95 89 93 98 127 134 136 129 133 131 136 144 162 164 192 242 230 308 344 292 322 280 86 270 292 290 307 311 327 29 352 344
109 106 101 93 88 86 98 103 101 101 103 107 118 114 114 116 114 116 114 104 65 63 179 293 354 277 266 250 47 339 329 292 313 40 1 310 306 287 327 268 335 332 335
110 105 105 105 101 99 109 110 111 105 108 113 121 115 117 111 140 127 117 107 87 54 25 347 304 354 2 45 345 296 310 314 308 323 309 291 7 324 344 343 350 17 349
125 118 112 106 103 95 102 107 112 109 109 116 116 126 137 166 65 316 178 196 184 158 74 21 26 28 339 341 293 289 308 293 278 241 22 284 3 332 340 313 220 79 339
122 122 122 120 119 112 110 116 120 112 112 114 113 86 185 209 118 284 242 229 201 133 94 71 81 58 354 334 316 307 268 303 292 343 53 331 347 334 325 283 58 355 334
117 119 125 120 108 113 103 92 108 123 135 132 139 128 30 26 134 243 250 202 260 135 170 166 175 212 223 180 245 252 322 307 360 281 71 352 346 4 323 305 353 328 313